Regional Weather Roundup
Issued by NWS

Home | Current Version | Previous Version | Graphics & Text | Print | Product List | Glossary On
Versions: 1 2 3 4 5 6 7 8 9 10 11 12 13 14 15 16 17 18 19 20 21 22 23 24 25 26 27 28 29 30 31 32 33 34 35 36 37 38 39 40 41 42 43 44 45 46 47 48 49 50
000
ASUS43 KTOP 022259
RWRKS

WEATHER ROUNDUP FOR KANSAS
NATIONAL WEATHER SERVICE GOODLAND KS
600 PM CDT WED SEP 02 2015

NOTE:  "FAIR" INDICATES FEW OR NO CLOUDS BELOW 12,000 FEET WITH NO
SIGNIFICANT WEATHER AND/OR OBSTRUCTIONS TO VISIBILITY.

KSZ001>006-013>018-027>032-041>047-030000-
NORTHWEST KANSAS

CITY           SKY/WX    TMP DP  RH WIND       PRES   REMARKS
GOODLAND       SUNNY     95  45  17 SW6       29.87F
HAYS           SUNNY    100  55  22 S21G35    29.79S HX  99
HILL CITY      SUNNY    101  55  21 S8        29.79F HX  99
RUSSELL        SUNNY     99  56  23 S23G30    29.80S HX  97
$$

KSZ061>065-074>080-084>089-030000-
SOUTHWEST KANSAS

CITY           SKY/WX    TMP DP  RH WIND       PRES   REMARKS
DODGE CITY     SUNNY     96  51  21 S25G31    29.86F
ELKHART          N/A     92  58  31 S14         N/A
GARDEN CITY    SUNNY     95  56  26 S13       29.86S
GREAT BEND     SUNNY     99  57  25 S23G36    29.82S HX  97
LIBERAL        PTSUNNY   95  54  24 S17G25    29.90F
$$

KSZ066>073-081>083-090>101-030000-
SOUTHEAST KANSAS

CITY           SKY/WX    TMP DP  RH WIND       PRES   REMARKS
CHANUTE        SUNNY     86  70  58 S13       29.95F
COFFEYVILLE    SUNNY     86  70  58 S12       29.94F
HUTCHINSON     SUNNY     94  60  32 S23G31    29.87F
NEWTON         SUNNY     91  63  38 S21       29.92F
PARSONS        SUNNY     86  72  62 S7        29.96F
WICHITA INTL   MOSUNNY   92  64  39 S18       29.88F
WICHITA JABRA  SUNNY     89  64  43 S21G29    29.90S
WINFIELD       SUNNY     90  65  43 SE20G26   29.92F
$$

KSZ007>012-019>026-033>040-048>060-102>105-030000-
NORTHEAST KANSAS

CITY           SKY/WX    TMP DP  RH WIND       PRES   REMARKS
CONCORDIA      SUNNY     93  62  35 S20G29    29.83F
EMPORIA        SUNNY     88  67  49 S15G24    29.91S
LAWRENCE       SUNNY     88  68  51 S10       29.91S
MANHATTAN      SUNNY     94  65  38 S12G28    29.85F HX  96
OLATHE IND     SUNNY     86  69  56 S13       29.94F
OLATHE EXE     SUNNY     84  69  60 S13       29.93F
SALINA         SUNNY     96  61  31 S23G31    29.83F HX  96
TOPEKA BILLARD SUNNY     89  67  47 S13       29.89F
TOPEKA FORBES  SUNNY     89  69  51 S12       29.90F
$$



USA.gov is the U.S. government's official web portal to all federal, state and local government web resources and services.